Regional Weather Roundup
Issued by NWS

Home | Current Version | Previous Version | Graphics & Text | Print | Product List | Glossary Off
Versions: 1 2 3 4 5 6 7 8 9 10 11 12 13 14 15 16 17 18 19 20 21 22 23 24 25 26 27 28 29 30 31 32 33 34 35 36 37 38 39 40 41 42 43 44 45 46 47 48 49 50

000
ASUS43 KIND 021909
RWRIN

WEATHER ROUNDUP FOR INDIANA
NATIONAL WEATHER SERVICE INDIANAPOLIS IN
300 PM EDT WED SEP 02 2015

NOTE: "FAIR" INDICATES FEW OR NO CLOUDS BELOW 12,000 FEET WITH NO
SIGNIFICANT WEATHER AND/OR OBSTRUCTIONS TO VISIBILITY.

* - STATION DOES NOT REPORT WEATHER SUCH AS PRECIPITATION OR FOG.

+ - STATION NOT QUALITY CONTROLLED BY THE NATIONAL WEATHER SERVICE.
    USE DATA WITH CAUTION...ESPECIALLY DEWPOINT AND RELATIVE
    HUMIDITY OBSERVATIONS.

INZ001>003-010>013-019-020-022000-
NORTHWEST INDIANA

CITY           SKY/WX    TMP DP  RH WIND       PRES   REMARKS
GARY /AIRPORT/ PTSUNNY   91  64  40 SW14      30.02F
KNOX *+        MOSUNNY   88  68  51 SW8       30.03S
LA PORTE +     SUNNY     90  71  53 SW9       30.04F HX  96
MICHIGAN CITY+ MOSUNNY   88  66  48 SW7       30.03F
MONTICELLO +   PTSUNNY   88  72  59 SW7       30.04F
RENSSELAER +   MOSUNNY   88  70  55 SW10G16   30.04F
VALPARAISO     MOSUNNY   89  70  53 SW9       30.04F

$$

LMZ046-743>745-022000-
SOUTHERN LAKE MICHIGAN

STATION/POSITION TIME  TEMP    WIND        PRES    WAVE
                       AIR SEA DIR/SP/G            HT
                 (UTC) (F)     (DEG/KT/KT) (MB)    (FT)
BURNS HARBOR     1800   86     220/  6/ 14 1017.3F
MICHIGAN CITY    1820   81     240/  4/  5   N/A
5NW MICH CITY    1900   83 74     CALM       N/A     0

$$

INZ004-005-014>016-021>024-022000-
NORTH CENTRAL INDIANA

CITY           SKY/WX    TMP DP  RH WIND       PRES   REMARKS
ELKHART        MOSUNNY   86  68  54 W6        30.04F
GOSHEN         MOSUNNY   88  69  53 W10       30.04S
LOGANSPORT +   PTSUNNY   88  61  40 W6        30.06S
PERU/GRISSOM   SUNNY     90  69  50 SW9       30.04F
ROCHESTER +    SUNNY     91  68  46 SW8       30.05F HX  95
SOUTH BEND     MOSUNNY   87  69  54 W10       30.04S
WARSAW +       MOSUNNY   88  70  55 W7        30.05S

$$

INZ006>009-017-018-025>027-022000-
NORTHEAST INDIANA

CITY           SKY/WX    TMP DP  RH WIND       PRES   REMARKS
ANGOLA *+      MOSUNNY   90  73  58 W7        30.04F HX  98
AUBURN +       MOSUNNY   88  64  45 W8        30.05S
FORT WAYNE     PTSUNNY   89  72  56 W12       30.05F HX  96
HUNTINGTON +   MOSUNNY   88  64  44 SW8       30.04F

$$

INZ028-029-035-036-043>045-051>053-022000-
WEST CENTRAL INDIANA

CITY           SKY/WX    TMP DP  RH WIND       PRES   REMARKS
CRAWFORDSVL +  MOSUNNY   86  63  46 W5        30.07F
GREENCASTLE +  SUNNY     86  64  48 CALM      30.09S
LAFAYETTE      MOSUNNY   89  67  47 VRB7      30.04F
TERRE HAUTE    PTSUNNY   87  68  52 VRB5      30.07F

$$

INZ030>032-037>040-046>048-054>057-064-065-022000-
CENTRAL INDIANA

CITY           SKY/WX    TMP DP  RH WIND       PRES   REMARKS
ANDERSON       MOSUNNY   90  61  37 W6        30.08F
COLUMBUS       MOSUNNY   86  66  51 SW7       30.08F
FRANKFORT +    SUNNY     89  71  55 SW6       30.08F HX  95
GREENWOOD *+   SUNNY     86  64  48 SW7       30.08F
INDIANAPOLIS   PTSUNNY   88  66  48 S10       30.07F
-EAGLE CREEK   MOSUNNY   88  67  49 SW8       30.06F
KOKOMO *+      PTSUNNY   88  70  55 SW10      30.05F
MARION +       MOSUNNY   86  59  40 SW7       30.06F
MT COMFORT *+  SUNNY     90  57  33 SW7       30.07F
SHELBYVILLE    MOSUNNY   90  68  48 SW10      30.07F
ZIONSVILLE +   PTSUNNY   88  66  48 SW5       30.08F

$$

INZ033-034-041-042-049-050-058-059-022000-
EAST CENTRAL INDIANA

CITY           SKY/WX    TMP DP  RH WIND       PRES   REMARKS
MUNCIE         MOSUNNY   86  67  52 W6        30.07F

$$

INZ060-061-067>069-081>083-085>088-022000-
SOUTHWEST INDIANA

CITY           SKY/WX    TMP DP  RH WIND       PRES   REMARKS
EVANSVILLE     SUNNY     90  64  42 VRB3      30.08F
HUNTINGBURG *+ SUNNY     90  66  45 SW3       30.08F
WASHINGTON +   SUNNY     89  59  37 W5        30.07F

$$

INZ062-063-066-070>080-084-089>092-022000-
SOUTH CENTRAL AND SOUTHEAST INDIANA

CITY           SKY/WX    TMP DP  RH WIND       PRES   REMARKS
BLOOMINGTON    SUNNY     87  67  51 SW6       30.09F
NORTH VERNON + PTSUNNY   88  66  48 W7        30.09F
SEYMOUR +      SUNNY     93  66  40 CALM      30.07F HX  96

$$



USA.gov is the U.S. government's official web portal to all federal, state and local government web resources and services.